Current Version              Previous Version:    01  02  03  04  05  06  07  08  09  10  11  12  13  14  15  16  17  18  19  20  21  22  23  24  25  26  27  28  29  30  
   31  32  33  34  35  36  37  38  39  40  41  42  43  44  45  46  47  48  49  50  51  52  53  54  55  56  57  58  59  60  

[Printable]
304
ASUS44 KLUB 310901
RWRTX
WEST TEXAS WEATHER ROUNDUP
NATIONAL WEATHER SERVICE LUBBOCK TX
300 AM CST SAT JAN 31 2015

NOTE: "FAIR" INDICATES FEW OR NO CLOUDS BELOW 12,000 FEET WITH NO
SIGNIFICANT WEATHER AND/OR OBSTRUCTIONS TO VISIBILITY.

TXZ004-006>008-010-012-014-016-OKZ002-311000-
TEXAS PANHANDLE/OKLAHOMA PANHANDLE

CITY           SKY/WX    TMP DP  RH WIND       PRES   REMARKS
AMARILLO       LGT RAIN  33  32  96 SE8       30.13F WCI  26
BORGER         LGT RAIN  35  32  88 S7        30.16F FOG     WCI  29
CANADIAN       LGT RAIN  38  36  92 CALM      30.17F
DALHART        LGT SNOW  34  32  92 S13       30.09F FOG     WCI  25
GUYMON         LGT RAIN  35  33  92 S15       30.10F WCI  25
$$

TXZ026-029-035-045-048-311000-
SOUTHERN PANHANDLE/SOUTH PLAINS/ROLLING PLAINS

CITY           SKY/WX    TMP DP  RH WIND       PRES   REMARKS
CHILDRESS      CLOUDY    41  33  73 SE3       30.19R
LUBBOCK        LGT RAIN  36  34  92 E8        30.10F FOG     WCI  30
$$

TXZ052-054-060>062-072-078-127-140-154-169-311000-
PERMIAN BASIN/CONCHO VALLEY/BIG COUNTRY/EDWARDS PLATEAU

CITY           SKY/WX    TMP DP  RH WIND       PRES   REMARKS
ABILENE        CLOUDY    46  34  62 SE10      30.16F
BROWNWOOD      CLOUDY    46  34  61 SE8       30.19F
JUNCTION       CLOUDY    50  41  71 SE13      30.15F
MIDLAND        LGT RAIN  42  39  89 E10       30.07F FOG
ODESSA         LGT RAIN  41  38  89 E9        30.07F FOG
SAN ANGELO     CLOUDY    49  39  68 SE8       30.12F
WINK           RAIN      43  39  86 E9        30.04F FOG
$$

TXZ055-058-074-075-080-082-311000-
FAR WEST/SOUTHWEST MOUNTAINS/TRANS PECOS

CITY           SKY/WX    TMP DP  RH WIND       PRES   REMARKS
DRYDEN           N/A     48  46  93 E16       30.07F
EL PASO        LGT RAIN  44  40  85 N5        29.94F
FORT STOCKTON  CLOUDY    46  44  93 SE12      30.04F
GUADALUPE PASS MIX PCPN  35  35 100 E26       29.97F VSB 1/4 WCI  22
MARFA          CLOUDY    45  43  93 SE7       30.05S
$$

TXZ014-016-019-021>030-083-311000
TEXAS TECH WEST TEXAS MESONET/TEXAS PANHANDLE/NORTHERN SOUTH PLAINS

CITY           SKY/WX    TMP DP  RH WIND       PRES   REMARKS
ABERNATHY 5ENE LGT RAIN  35  34  98 E7        30.13F WCI  29
AMARILLO 9NNE    N/A     34  32  95 S6        30.14F WCI  28
AMARILLO 7SSE    N/A     33  32  98 SE8       30.14F WCI  25
AMHERST 1NE      N/A     34  33  99 SE9       30.11F WCI  26
BOOTLEG 11WNW    N/A     32  31  96 S10       30.10F WCI  24
CANADIAN 6E      N/A     36  34  92 SE2       30.16F
CAPROCK CYN SP   N/A     35  33  93 SW1       30.17F
CLARENDON 2WSW LGT RAIN  35  32  90 S6        30.17S WCI  29
CLAUDE 12SW      N/A     32  31  97 SE6       30.14F WCI  26
DIMMITT 2NE      N/A     32  32  99 SE13      30.12F WCI  23
FLOYDADA 2NNE  LGT RAIN  34  32  94 E3        30.13F
FRIONA 2NE       N/A     33  32  96 S9        30.12F WCI  25
GOODLETT 3W      N/A     42  33  70 E7        30.18F
HART 3N          N/A     33  32  98 SE7       30.13S WCI  27
HEREFORD 2NW   LGT RAIN  33  32  96 S7        30.12F WCI  27
MCLEAN 1E        N/A     35  32  91 S6        30.15S WCI  29
MEMPHIS 1NE      N/A     38  35  88 CALM      30.18F
MULESHOE 2SSW    N/A     34  34  97 E7        30.11F WCI  28
OLTON 6S         N/A     34  32  94 E7        30.12F WCI  28
PALO DURO SP     N/A     33  32  96 SE3       30.15F
PAMPA 2E       LGT RAIN  33  31  94 S9        30.15S WCI  25
PLAINVIEW 1S     N/A     34  33  98 E6        30.12F WCI  29
SILVERTON 7ESE LGT RAIN  34  32  94 SE2       30.15F
TULIA 2ENE       N/A     33  32  99 SE7       30.14F WCI  26
TURKEY 2WSW    LGT RAIN  37  34  89 CALM      30.16F
UMBARGER 3NNE    N/A     33  32  97 S7        30.13F WCI  26
$$

TXZ033>036-039>041-045>048-311000
TEXAS TECH WEST TEXAS MESONET/SOUTH PLAINS

CITY           SKY/WX    TMP DP  RH WIND       PRES   REMARKS
AIKEN 3WSW     LGT RAIN  34  33  94 E6        30.14F WCI  29
ANDREWS 2NE      N/A     39  37  92 E6        30.09S WCI  35
BROWNFIELD 2S  LGT RAIN  36  35  95 E6        30.11F WCI  31
DENVR CTY 7WNW   N/A     36  35  97 E9        30.08F WCI  29
GAIL 2ESE        N/A     41  36  82 E5        30.11F
LAMESA 2SE     LGT RAIN  38  37  94 E7        30.11F WCI  33
LEVELLAND 4S   LGT RAIN  35  33  92 E7        30.10F WCI  29
LUBBOCK 3WNW     N/A     36  34  94 E7        30.12F WCI  30
MORTON 1ENE      N/A     34  34  99 E8        30.10F WCI  28
ODONNELL 1N    LGT RAIN  37  36  93 E8        30.11F WCI  31
PLAINS 3N        N/A     36  35  99 E9        30.09F WCI  29
RALLS 1SE        N/A     36  33  90 E6        30.13F WCI  31
REESE CENTER   LGT RAIN  35  34  96 E7        30.11F WCI  29
SEAGRAVES 1SW    N/A     37  36  97 E7        30.10F WCI  31
SEMINOLE 2NNE    N/A     38  36  94 E7        30.10F WCI  32
SLATON 2NE       N/A     35  33  94 E7        30.11F WCI  29
SNYDER 3E        N/A     43  33  68 E7        30.12F
SUNDOWN 8SW    LGT RAIN  35  35  97 E6        30.10S WCI  30
TAHOKA 3NNE      N/A     37  35  93 E6        30.10F WCI  32
WOLFFORTH 6SSW   N/A     36  36  99 E8        30.11F WCI  30
$$

TXZ031-032-036>038-042>044-311000-
TEXAS TECH WEST TEXAS MESONET/ROLLING PLAINS

CITY           SKY/WX    TMP DP  RH WIND       PRES   REMARKS
ASPERMONT 3NE    N/A     45  34  66 E3        30.17F
FLUVANNA 3WNW    N/A     41  33  74 E6        30.10F
GRAHAM 5SSW    LGT RAIN  38  35  89 NE8       30.10F WCI  32
GUTHRIE 10WSW    N/A     41  32  69 NE2       30.16F
HASKELL 1NW      N/A     46  32  58 SE6       30.17F
JAYTON 1SSE      N/A     42  33  71 NE5       30.15F
KNOX CITY 3NW    N/A     44  35  70 E2        30.19F
LK A HENRY 1NW   N/A     42  33  70 E5        30.12F
NORTHFIELD 1S    N/A     40  35  81 NE1       30.17F
ODELL 4ENE       N/A     44  32  64 E10       30.21F
PADUCAH 10SW     N/A     40  32  73 E3        30.17F
POST 1NE         N/A     38  35  89 NE5       30.12F WCI  35
RRING SPRGS 3N   N/A     37  34  88 S1        30.15F
SEYMOUR 3NW      N/A     45  36  70 E3        30.19F
SPUR 1W          N/A     40  32  74 NE5       30.14F
WEINERT 2NNE     N/A     46  34  61 SE7       30.19F
WHITE RVR 6NE    N/A     37  33  84 NE5       30.13F WCI  34
$$

TXZ052-054-060>062-072-078-127-140-154-169-311000-
TEXAS TECH WEST TEXAS MESONET/PERMIAN BASIN/
CONCHO VALLEY/BIG COUNTRY/EDWARDS PLATEAU

CITY           SKY/WX    TMP DP  RH WIND       PRES   REMARKS
COYANOSA 2N      N/A     45  44  97 E8        30.05F
JUNCTION 1SSW    N/A     49  41  73 SE7       30.16F
MERTZON 3NNE     N/A     47  38  70 SE5       30.13F
SAN ANGELO 7NW   N/A     46  36  68 E9        30.14F
STRLNG CT 4WSW   N/A     44  35  70 E12       30.11F
ST LAWRNCE 5SW   N/A     43  39  86 E13       30.08F
SWEETWATR 11SW   N/A     43  35  73 SE9       30.13F
WALL 1E          N/A     47  38  69 E6        30.14F
$$

TXZ055-058-074-075-080-082-311000-
TEXAS TECH WEST TEXAS MESONET/FAR WEST/SOUTHWEST MOUNTAINS/TRANS PECOS

CITY           SKY/WX    TMP DP  RH WIND       PRES   REMARKS
PRSMN GAP BBNP   N/A     47  47  98 N14       30.04S
GUADLPE MTN NP   N/A     35  35  99 E5        30.01F WCI  31
$$